Weather in Polyarnie Zori

Russia / Murmansk Oblast     67°21′56″N   32°30′03″E
temp.,
°C
wind,
m/s
gust,
m/s
humid.,
%
clouds,
%
prec.,
mm/h
press.,
hPa
HPBL,
m
15 may, sat
sat1500:00+1ene4986100 0.0 1018484
03:00+1ene3788100 0.0 1018351
06:00+1ene3585100 0.0 1018331
09:00+2e2383100 0.0 1018359
12:00+4ese1278100 0.0 1017476
15:00+7ese117279 0.0 1016657
18:00+6se227686 0.0 1016520
21:00+5ene128396 0.0 1015298
16 may, sun
sun1600:00+4e1189100 0.0 101590
03:00+3nne2391100 0.0 1014155
06:00+3ene1389100 0.0 1013194
09:00+4ene2485100 0.0 1012314
12:00+7ene2477100 0.0 1012443
15:00+9ene247166 0.0 1011610
18:00+9ene2371100 0.0 1011600
21:00+7ene1283100 0.0 1011106
17 may, mon
mon1700:00+6ne118699 0.0 101223
03:00+5ese1187100 0.0 101213
06:00+6sse1189100 0.0 101345
09:00+7s1281100 0.0 1014222
12:00+10s2466100 0.0 1014446
15:00+12s346018 0.0 1014542
18:00+12s346028 0.0 1014423
21:00+9s237330 0.0 1014103
18 may, tue
tue1800:00+6s228853 0.0 101550
03:00+5s22958 0.0 101546
06:00+6sse1290100 0.0 1015112
09:00+10sse2377100 0.0 1013343
12:00+12sse3871100 0.0 1012493
15:00+10s3784100 0.4 1010384
18:00+10s2687100 1.3 1008318
21:00+10ese0194100 1.6 100532
19 may, wed
wed1900:00+9se1199100 6.3 100439
03:00+9nw1199100 6.8 100313
06:00+10nne1298100 0.0 100278
09:00+12ene129593 0.3 1000165
12:00+17ese258047 0.1 998550
15:00+19sse256844 0.2 996521
18:00+17s367299 0.2 996358
21:00+14sse258825 0.2 996166